Glenwood, MN

8:20 AM CST on November 21, 2017 (GMT -0600)
Glenwood Municipal

Weather History for KGHW - February, 2012

Change the Weather History Date:

Wednesday, February 29, 2012

  Actual Average Record
Temperature  
Mean Temperature 30 °F -  
Max Temperature 33 °F - 49 °F (1964)
Min Temperature 28 °F - -16 °F (1980)
Degree Days  
Heating Degree Days 34    
Moisture  
Dew Point 27 °F    
Average Humidity 86    
Maximum Humidity 93    
Minimum Humidity 75    
Precipitation  
Precipitation 0.00 in - - ()
Sea Level Pressure  
Sea Level Pressure 29.46 in    
Wind  
Wind Speed 22 mph (NNE)    
Max Wind Speed 29 mph    
Max Gust Speed 38 mph    
Visibility 6 miles    
Events Snow    
Averages and records for this station are not official NWS values.
T = Trace of Precipitation, MM = Missing Value Source: NWS Daily Summary

Daily Weather History Graph

Daily Weather History Graph

Search for Another Location

Airport or City:

Trip Planner

Search our weather history database for the weather conditions in past years. The results will help you decide how hot, cold, wet, or windy it might be!

Date:

Astronomy

Feb. 29, 2012 Rise Set
Actual Time 7:00 AM CST 6:07 PM CST
Civil Twilight 6:30 AM CST 6:37 PM CST
Nautical Twilight 5:56 AM CST 7:11 PM CST
Astronomical Twilight 5:22 AM CST 7:46 PM CST
Moon 10:28 AM CST (2/29) 1:18 AM CST (2/29)
Length of Visible Light 12h 06m
Length of Day
11h 06m
Waxing Crescent, 47% of the Moon is Illuminated
Feb 29
Waxing Crescent
Feb 29
First Quarter
Mar 8
Full
Mar 14
Last Quarter
Mar 22
New

Hourly Weather History & Observations

Time (CST) Temp. Windchill Dew Point Humidity Pressure Visibility Wind Dir Wind Speed Gust Speed Precip Events Conditions
12:13 AM 28.4 °F 13.0 °F 26.6 °F 93% 29.53 in 2.0 mi ENE 28.8 mph 35.7 mph N/A   Overcast
12:34 AM 28.4 °F 13.3 °F 26.6 °F 93% 29.51 in 2.0 mi ENE 27.6 mph 33.4 mph N/A   Overcast
12:54 AM 28.4 °F 13.5 °F 26.6 °F 93% 29.50 in 2.0 mi ENE 26.5 mph 34.5 mph N/A   Overcast
1:14 AM 28.4 °F 13.3 °F 26.6 °F 93% 29.49 in 2.0 mi East 27.6 mph 38.0 mph N/A   Overcast
1:33 AM 28.4 °F 13.3 °F 26.6 °F 93% 29.48 in 1.8 mi East 27.6 mph 36.8 mph N/A   Overcast
1:54 AM 28.4 °F 13.8 °F 26.6 °F 93% 29.45 in 2.5 mi ENE 25.3 mph 33.4 mph N/A   Overcast
2:14 AM 28.4 °F 13.5 °F 26.6 °F 93% 29.42 in 2.0 mi ENE 26.5 mph 35.7 mph N/A   Overcast
2:34 AM 28.4 °F 13.5 °F 26.6 °F 93% 29.40 in 1.8 mi ENE 26.5 mph 33.4 mph N/A Snow Light Snow
2:53 AM 28.4 °F 13.3 °F 26.6 °F 93% 29.38 in 1.8 mi ENE 27.6 mph 34.5 mph N/A Snow Light Snow
3:14 AM 28.4 °F 13.3 °F 26.6 °F 93% 29.36 in 1.8 mi ENE 27.6 mph 33.4 mph N/A Snow Light Snow
3:54 AM 28.4 °F 14.1 °F 26.6 °F 93% 29.35 in 2.0 mi ENE 24.2 mph 33.4 mph N/A Snow Light Snow
4:14 AM 28.4 °F 13.5 °F 26.6 °F 93% 29.35 in 1.8 mi ENE 26.5 mph 33.4 mph N/A Snow Light Snow
4:34 AM 28.4 °F 14.1 °F 26.6 °F 93% 29.34 in 1.8 mi NE 24.2 mph 31.1 mph N/A Snow Light Snow
4:54 AM 28.4 °F 14.4 °F 26.6 °F 93% 29.34 in 1.8 mi NE 23.0 mph 27.6 mph N/A Snow Light Snow
5:13 AM 28.4 °F 14.7 °F 26.6 °F 93% 29.34 in 1.5 mi NE 21.9 mph 28.8 mph N/A Snow Light Snow
5:34 AM 28.4 °F 15.1 °F 26.6 °F 93% 29.34 in 1.5 mi NE 20.7 mph 26.5 mph N/A Snow Light Snow
6:33 AM 28.4 °F 14.4 °F 24.8 °F 86% 29.32 in 0.8 mi NNE 23.0 mph 28.8 mph N/A Snow Snow
6:54 AM 28.4 °F 13.8 °F 26.6 °F 93% 29.32 in 0.8 mi NNE 25.3 mph - N/A Snow Snow
7:13 AM 28.4 °F 14.1 °F 26.6 °F 93% 29.32 in 0.8 mi NNE 24.2 mph 31.1 mph N/A Snow Light Snow
7:34 AM 28.4 °F 14.7 °F 26.6 °F 93% 29.32 in 1.0 mi NNE 21.9 mph 28.8 mph N/A Snow Light Snow
7:54 AM 28.4 °F 14.7 °F 26.6 °F 93% 29.32 in 1.2 mi NNE 21.9 mph - N/A Snow Light Snow
8:14 AM 28.4 °F 15.1 °F 26.6 °F 93% 29.33 in 1.0 mi NNE 20.7 mph - N/A Snow Light Snow
8:34 AM 30.2 °F 17.1 °F 26.6 °F 86% 29.33 in 1.0 mi NNE 21.9 mph 27.6 mph N/A Snow Light Snow
8:54 AM 30.2 °F 16.8 °F 26.6 °F 86% 29.33 in 2.0 mi NNE 23.0 mph 28.8 mph N/A Snow Light Snow
9:14 AM 30.2 °F 17.4 °F 26.6 °F 86% 29.33 in 1.0 mi NNE 20.7 mph - N/A Snow Light Snow
9:33 AM 30.2 °F 17.1 °F 26.6 °F 86% 29.34 in 0.8 mi NNE 21.9 mph - N/A Snow Light Snow
10:14 AM 30.2 °F 18.1 °F 26.6 °F 86% 29.35 in 5.0 mi NNE 18.4 mph 27.6 mph N/A   Overcast
10:33 AM 30.2 °F 17.1 °F 26.6 °F 86% 29.36 in 7.0 mi NNE 21.9 mph 28.8 mph N/A   Overcast
10:54 AM 30.2 °F 16.5 °F 26.6 °F 86% 29.37 in 10.0 mi NNE 24.2 mph - N/A   Overcast
11:13 AM 32.0 °F 19.5 °F 26.6 °F 80% 29.38 in 10.0 mi NNE 21.9 mph 27.6 mph N/A   Overcast
11:34 AM 32.0 °F 19.5 °F 26.6 °F 80% 29.39 in 10.0 mi NNE 21.9 mph - N/A   Overcast
11:54 AM 32.0 °F 20.5 °F 26.6 °F 80% 29.40 in 10.0 mi NNE 18.4 mph 23.0 mph N/A   Overcast
12:14 PM 32.0 °F 20.1 °F 26.6 °F 80% 29.41 in 10.0 mi NNE 19.6 mph 24.2 mph N/A   Overcast
12:34 PM 32.0 °F 20.5 °F 26.6 °F 80% 29.42 in 4.0 mi North 18.4 mph - N/A   Haze
12:54 PM 32.0 °F 20.5 °F 26.6 °F 80% 29.43 in 4.0 mi North 18.4 mph 24.2 mph N/A   Haze
1:14 PM 33.8 °F 23.2 °F 26.6 °F 75% 29.44 in 10.0 mi North 17.3 mph 24.2 mph N/A   Overcast
1:53 PM 33.8 °F 23.2 °F 26.6 °F 75% 29.46 in 10.0 mi North 17.3 mph 21.9 mph N/A   Overcast
2:14 PM 33.8 °F 23.9 °F 26.6 °F 75% 29.47 in 10.0 mi North 15.0 mph 23.0 mph N/A   Overcast
2:33 PM 33.8 °F 23.9 °F 26.6 °F 75% 29.48 in 10.0 mi North 15.0 mph 19.6 mph N/A   Overcast
2:54 PM 33.8 °F 24.3 °F 26.6 °F 75% 29.49 in 10.0 mi North 13.8 mph 19.6 mph N/A   Overcast
3:14 PM 33.8 °F 24.8 °F 26.6 °F 75% 29.50 in 10.0 mi North 12.7 mph 19.6 mph N/A   Overcast
3:33 PM 33.8 °F 24.3 °F 26.6 °F 75% 29.51 in 10.0 mi North 13.8 mph - N/A   Overcast
3:54 PM 33.8 °F 24.3 °F 26.6 °F 75% 29.53 in 7.0 mi North 13.8 mph 18.4 mph N/A   Overcast
4:14 PM 32.0 °F 22.5 °F 26.6 °F 80% 29.55 in 10.0 mi North 12.7 mph 17.3 mph N/A   Overcast
4:34 PM 32.0 °F 22.5 °F 26.6 °F 80% 29.56 in 10.0 mi North 12.7 mph - N/A   Overcast
4:54 PM 33.8 °F 24.8 °F 26.6 °F 75% 29.57 in 10.0 mi North 12.7 mph - N/A   Overcast
5:13 PM 32.0 °F 24.2 °F 26.6 °F 80% 29.58 in 10.0 mi North 9.2 mph - N/A   Overcast
5:34 PM 32.0 °F 24.2 °F 26.6 °F 80% 29.58 in 10.0 mi NNW 9.2 mph - N/A   Overcast
5:53 PM 32.0 °F 23.0 °F 26.6 °F 80% 29.59 in 10.0 mi North 11.5 mph - N/A   Overcast
6:13 PM 32.0 °F 22.5 °F 26.6 °F 80% 29.61 in 10.0 mi North 12.7 mph - N/A   Overcast
6:34 PM 32.0 °F 24.2 °F 26.6 °F 80% 29.62 in 10.0 mi North 9.2 mph - N/A   Overcast
6:54 PM 32.0 °F 24.2 °F 26.6 °F 80% 29.64 in 10.0 mi North 9.2 mph - N/A   Overcast
7:14 PM 32.0 °F 24.8 °F 26.6 °F 80% 29.66 in 10.0 mi NNW 8.1 mph - N/A   Overcast
7:33 PM 30.2 °F 25.4 °F 28.4 °F 93% 29.67 in 5.0 mi NNW 4.6 mph - N/A   Overcast
7:54 PM 30.2 °F 24.3 °F 28.4 °F 93% 29.68 in 10.0 mi NW 5.8 mph - N/A   Overcast
8:14 PM 30.2 °F 23.4 °F 28.4 °F 93% 29.69 in 10.0 mi NW 6.9 mph - N/A   Overcast
8:33 PM 30.2 °F 23.4 °F 28.4 °F 93% 29.70 in 10.0 mi NW 6.9 mph - N/A   Overcast
8:54 PM 30.2 °F 23.4 °F 28.4 °F 93% 29.70 in 7.0 mi NW 6.9 mph - N/A   Overcast
9:14 PM 30.2 °F 21.3 °F 28.4 °F 93% 29.71 in 7.0 mi NNW 10.4 mph - N/A   Overcast
9:33 PM 30.2 °F 24.3 °F 26.6 °F 86% 29.71 in 10.0 mi North 5.8 mph - N/A   Overcast
9:54 PM 30.2 °F 24.3 °F 26.6 °F 86% 29.71 in 10.0 mi NNW 5.8 mph - N/A   Overcast
10:14 PM 30.2 °F 24.3 °F 26.6 °F 86% 29.72 in 10.0 mi NNW 5.8 mph - N/A   Overcast
10:34 PM 30.2 °F 23.4 °F 26.6 °F 86% 29.72 in 10.0 mi NNW 6.9 mph - N/A   Overcast
10:54 PM 30.2 °F 24.3 °F 26.6 °F 86% 29.72 in 10.0 mi NNW 5.8 mph - N/A   Overcast
11:13 PM 30.2 °F 24.3 °F 26.6 °F 86% 29.73 in 10.0 mi NNW 5.8 mph - N/A   Overcast
11:34 PM 30.2 °F 25.4 °F 26.6 °F 86% 29.72 in 10.0 mi North 4.6 mph - N/A   Overcast
11:54 PM 30.2 °F - 26.6 °F 86% 29.73 in 10.0 mi Calm Calm - N/A   Overcast